Cosmos 1484 Rocket - Orbit

View from above orbital plane
View from above orbital plane
View from above satellite
View from above satellite

Ground track
Ground track

The orbit data is extracted from the following two-line orbital elements,

1 14208U 83075B   13145.71953499  .00001904  00000-0  13530-3 0  7503
2 14208 097.4748 190.5390 0044633 184.1711 175.9150 15.05078264623890
Epoch (UTC): 25 May 2013 17:16:07
Eccentricity: 0.0044633
inclination: 97.4748°
perigee height: 520 km
apogee height: 582 km
right ascension of ascending node: 190.5390°
argument of perigee: 184.1711°
revolutions per day: 15.05078264
mean anomaly at epoch: 175.9150°
orbit number at epoch: 62389

The dashed part of the orbit path shows where the satellite is in the earth's shadow,  

Developed and maintained by Chris Peat, Heavens-Above GmbH. Please read the updated FAQ before sending e-mail. Imprint. DLR